Location: Walton
(43.6794°N, 81.3017°W)
Time: 22:47:03
(UTC+00:00)

BREEZE-M DEB (TANK) - Visible Passes

Search period start: 14 March 2026 00:00
Search period end: 24 March 2026 00:00
Orbit: 322 x 14407 km, 49.6° (Epoch: 14 March)

Date Brightness Start Highest point End Pass type
(mag) Time Alt. Az. Time Alt. Az. Time Alt. Az.
15 Mar 4.5 02:12:16 10° WNW 02:16:27 38° NW 02:16:27 38° NW visible
16 Mar 4.8 00:17:34 10° W 00:29:20 50° N 00:32:36 14° ENE visible
18 Mar 3.3 01:24:30 10° WNW 01:31:36 56° NNE 01:32:03 52° NE visible
20 Mar 5.1 02:28:45 10° WNW 02:31:23 26° WNW 02:31:23 26° WNW visible
21 Mar 4.2 00:35:47 10° WNW 00:45:04 53° N 00:47:25 19° E visible
23 Mar 2.9 01:40:54 10° WNW 01:46:35 81° W 01:46:35 81° W visible
